FW5442 Weather Reports


Display with metric or nautical units.
time (UTC)temp
F
wind
direction
speed
MPH
gust
MPH
rain 1hr
in
rain 24hr
in
rain mn
in
humidity
%
barometer
mb
20260906031600 85 181 3.0 5.0 0.00 0.00 0.00 65 1011.4
20260906031056 85 167 1.0 6.0 0.00 0.00 0.00 65 1011.3
20260906030554 86 173 2.0 7.0 0.00 0.00 0.00 65 1011.2
20260906030109 86 160 4.0 8.0 0.00 0.00 0.00 64 1011.0
20260906025553 86 162 5.0 8.0 0.00 0.00 0.00 64 1011.1
20260906025053 86 176 6.0 8.0 0.00 0.00 0.00 65 1011.2
20260906024559 85 149 3.0 8.0 0.00 0.00 0.00 66 1011.3
20260906024053 84 119 6.0 8.0 0.00 0.00 0.00 67 1011.3
20260906023554 85 156 0.0 2.0 0.00 0.00 0.00 65 1011.2
20260906023109 86 183 0.0 1.0 0.00 0.00 0.00 64 1011.1
20260906022553 86 0 0.0 2.0 0.00 0.00 0.00 65 1011.1
20260906022053 86 227 1.0 3.0 0.00 0.00 0.00 64 1011.1
20260906021601 86 245 2.0 3.0 0.00 0.00 0.00 64 1011.0
20260906021053 86 218 2.0 3.0 0.00 0.00 0.00 63 1011.0
20260906020557 86 264 2.0 4.0 0.00 0.00 0.00 63 1010.8
20260906020100 86 200 3.0 4.0 0.00 0.00 0.00 63 1010.8
20260906015552 87 245 1.0 2.0 0.00 0.00 0.00 63 1010.8
20260906015053 87 0 0.0 2.0 0.00 0.00 0.00 63 1010.8
20260906014606 87 0 0.0 0.0 0.00 0.00 0.00 62 1010.6
20260906014054 88 0 0.0 0.0 0.00 0.00 0.00 60 1010.4
20260906013554 88 0 0.0 1.0 0.00 0.00 0.00 60 1010.5
20260906013100 88 0 0.0 2.0 0.00 0.00 0.00 59 1010.4
20260906012555 89 153 0.0 2.0 0.00 0.00 0.00 57 1010.2
20260906012053 90 0 1.0 4.0 0.00 0.00 0.00 57 1010.0
20260906011608 90 316 1.0 6.0 0.00 0.00 0.00 56 1010.0
20260906011053 91 311 4.0 6.0 0.00 0.00 0.00 55 1009.9
20260906010552 91 286 4.0 6.0 0.00 0.00 0.00 54 1009.9
20260906005553 91 290 4.0 6.0 0.00 0.00 0.00 54 1009.7
20260906005057 91 304 2.0 4.0 0.00 0.00 0.00 54 1009.8
20260906004601 91 292 3.0 4.0 0.00 0.00 0.00 53 1009.7
20260906004056 92 299 3.0 4.0 0.00 0.00 0.00 52 1009.6
20260906003554 92 304 3.0 4.0 0.00 0.00 0.00 51 1009.6
20260906003104 93 295 2.0 5.0 0.00 0.00 0.00 51 1009.6
20260906002552 93 296 3.0 7.0 0.00 0.00 0.00 51 1009.5
20260906002056 93 295 4.0 7.0 0.00 0.00 0.00 51 1009.4
20260906001605 93 294 5.0 8.0 0.00 0.00 0.00 50 1009.4
20260906001056 94 287 5.0 10.0 0.00 0.00 0.00 49 1009.5
20260906000555 94 297 6.0 10.0 0.00 0.00 0.00 49 1009.5
20260906000104 94 288 8.0 10.0 0.00 0.00 0.00 48 1009.4
20260905235553 95 299 7.0 12.0 0.00 0.00 0.00 48 1009.4
20260905235056 95 289 7.0 12.0 0.00 0.00 0.00 47 1009.4
20260905234557 95 293 8.0 11.0 0.00 0.00 0.00 47 1009.4
20260905234053 96 291 6.0 10.0 0.00 0.00 0.00 47 1009.3
20260905233556 96 307 6.0 9.0 0.00 0.00 0.00 46 1009.2
20260905233116 97 308 0.0 2.0 0.00 0.00 0.00 41 1009.2
20260905232555 98 0 0.0 2.0 0.00 0.00 0.00 41 1009.2
20260905232053 97 0 0.0 3.0 0.00 0.00 0.00 41 1009.2
20260905231602 97 84 2.0 3.0 0.00 0.00 0.00 41 1009.3
20260905231055 97 78 3.0 3.0 0.00 0.00 0.00 40 1009.2
20260905230555 96 79 3.0 5.0 0.00 0.00 0.00 41 1009.3
20260905230106 96 76 3.0 6.0 0.00 0.00 0.00 41 1009.1
20260905225556 97 94 4.0 8.0 0.00 0.00 0.00 41 1009.1
20260905225056 97 85 5.0 9.0 0.00 0.00 0.00 41 1009.3
20260905224604 97 59 5.0 9.0 0.00 0.00 0.00 40 1009.2
20260905224053 98 96 6.0 9.0 0.00 0.00 0.00 41 1009.1
20260905223553 98 82 3.0 8.0 0.00 0.00 0.00 39 1009.1
20260905223106 99 82 6.0 11.0 0.00 0.00 0.00 37 1009.3
20260905222552 100 104 4.0 12.0 0.00 0.00 0.00 38 1009.3
20260905222052 100 83 7.0 12.0 0.00 0.00 0.00 36 1009.3
20260905221604 101 123 7.0 12.0 0.00 0.00 0.00 35 1009.3
20260905221053 102 338 3.0 8.0 0.00 0.00 0.00 35 1009.4
20260905220552 102 360 3.0 10.0 0.00 0.00 0.00 34 1009.5
20260905215555 101 56 2.0 9.0 0.00 0.00 0.00 36 1009.4
20260905215053 101 79 5.0 9.0 0.00 0.00 0.00 36 1009.4
20260905214604 101 14 2.0 9.0 0.00 0.00 0.00 36 1009.5
20260905214056 100 314 3.0 9.0 0.00 0.00 0.00 36 1009.6
20260905213553 101 305 3.0 9.0 0.00 0.00 0.00 36 1009.6
20260905213108 102 203 4.0 7.0 0.00 0.00 0.00 35 1009.6
20260905212553 101 332 2.0 4.0 0.00 0.00 0.00 37 1009.7
20260905212052 99 95 1.0 3.0 0.00 0.00 0.00 37 1009.7
20260905211613 99 95 1.0 4.0 0.00 0.00 0.00 38 1009.7
20260905211055 99 15 0.0 6.0 0.00 0.00 0.00 39 1009.6
20260905210553 98 76 3.0 6.0 0.00 0.00 0.00 39 1009.8
20260905210113 99 68 2.0 11.0 0.00 0.00 0.00 39 1009.8
20260905205554 100 34 3.0 11.0 0.00 0.00 0.00 39 1009.9
20260905205053 100 84 3.0 11.0 0.00 0.00 0.00 38 1009.9
20260905204601 101 80 6.0 11.0 0.00 0.00 0.00 38 1009.9
20260905204052 102 117 0.0 11.0 0.00 0.00 0.00 36 1009.8
20260905203556 101 0 4.0 12.0 0.00 0.00 0.00 37 1010.1
20260905203102 100 93 8.0 12.0 0.00 0.00 0.00 38 1010.2
20260905202557 101 75 4.0 8.0 0.00 0.00 0.00 38 1010.1
20260905202052 100 85 6.0 13.0 0.00 0.00 0.00 38 1010.2
20260905201600 100 90 7.0 13.0 0.00 0.00 0.00 39 1010.2
20260905201053 101 77 5.0 12.0 0.00 0.00 0.00 38 1010.3
20260905200554 101 328 6.0 12.0 0.00 0.00 0.00 37 1010.4
20260905195555 99 27 4.0 8.0 0.00 0.00 0.00 38 1010.8
20260905195053 98 60 4.0 10.0 0.00 0.00 0.00 40 1010.9
20260905194603 99 75 5.0 10.0 0.00 0.00 0.00 40 1011.0
20260905194054 100 119 5.0 10.0 0.00 0.00 0.00 39 1011.1
20260905193553 101 210 2.0 10.0 0.00 0.00 0.00 40 1011.2
20260905193104 100 62 3.0 10.0 0.00 0.00 0.00 39 1011.2
20260905192553 99 338 5.0 10.0 0.00 0.00 0.00 40 1011.2
20260905192056 101 332 5.0 9.0 0.00 0.00 0.00 39 1011.2
20260905191601 101 84 4.0 9.0 0.00 0.00 0.00 39 1011.2
20260905191052 101 349 5.0 9.0 0.00 0.00 0.00 38 1011.5
20260905190600 100 131 3.0 11.0 0.00 0.00 0.00 40 1011.5
20260905190104 101 288 1.0 11.0 0.00 0.00 0.00 39 1011.5
20260905185558 100 27 3.0 11.0 0.00 0.00 0.00 39 1011.8
20260905185053 100 130 4.0 15.0 0.00 0.00 0.00 41 1011.7
20260905184611 100 352 6.0 15.0 0.00 0.00 0.00 40 1011.8
20260905184053 99 31 8.0 15.0 0.00 0.00 0.00 40 1012.1
20260905183553 99 1 2.0 7.0 0.00 0.00 0.00 40 1012.1
20260905183119 99 245 3.0 10.0 0.00 0.00 0.00 42 1012.0
20260905182553 98 31 4.0 10.0 0.00 0.00 0.00 42 1012.2
20260905182052 96 55 4.0 8.0 0.00 0.00 0.00 45 1012.2
20260905181602 98 76 4.0 13.0 0.00 0.00 0.00 42 1012.3
20260905181053 99 86 4.0 13.0 0.00 0.00 0.00 41 1012.4
20260905180557 99 284 3.0 11.0 0.00 0.00 0.00 42 1012.5
20260905175554 99 351 3.0 10.0 0.00 0.00 0.00 42 1012.6
20260905175054 98 6 1.0 11.0 0.00 0.00 0.00 42 1012.7
20260905174605 98 15 4.0 11.0 0.00 0.00 0.00 41 1012.7
20260905174053 100 325 4.0 8.0 0.00 0.00 0.00 40 1012.7
20260905173552 99 319 3.0 11.0 0.00 0.00 0.00 42 1012.8
20260905173100 98 92 5.0 11.0 0.00 0.00 0.00 41 1012.8
20260905172555 98 249 2.0 11.0 0.00 0.00 0.00 44 1012.9
20260905172055 97 0 4.0 10.0 0.00 0.00 0.00 44 1012.9
20260905171557 98 324 3.0 10.0 0.00 0.00 0.00 43 1012.9
20260905171053 97 59 4.0 10.0 0.00 0.00 0.00 43 1013.0
20260905170553 97 296 2.0 11.0 0.00 0.00 0.00 45 1013.0
20260905165552 96 72 6.0 11.0 0.00 0.00 0.00 45 1013.3
20260905165052 96 354 3.0 11.0 0.00 0.00 0.00 44 1013.4
20260905164602 96 355 4.0 11.0 0.00 0.00 0.00 44 1013.4
20260905164054 96 321 3.0 7.0 0.00 0.00 0.00 44 1013.5
20260905163555 97 348 3.0 9.0 0.00 0.00 0.00 44 1013.5
20260905163058 96 95 1.0 10.0 0.00 0.00 0.00 46 1013.5
20260905162556 96 2 4.0 10.0 0.00 0.00 0.00 46 1013.6
20260905162053 95 304 4.0 10.0 0.00 0.00 0.00 48 1013.5
20260905161608 95 330 3.0 10.0 0.00 0.00 0.00 48 1013.6
20260905161053 94 333 6.0 9.0 0.00 0.00 0.00 48 1013.6
20260905160555 94 352 3.0 9.0 0.00 0.00 0.00 49 1013.6
20260905160104 94 311 6.0 12.0 0.00 0.00 0.00 50 1013.7
20260905155554 93 353 5.0 12.0 0.00 0.00 0.00 51 1013.5
20260905155057 93 355 4.0 9.0 0.00 0.00 0.00 51 1013.8
20260905154559 93 319 4.0 10.0 0.00 0.00 0.00 53 1013.7
20260905154054 92 307 4.0 10.0 0.00 0.00 0.00 53 1013.7
20260905153553 92 302 4.0 12.0 0.00 0.00 0.00 53 1013.8
20260905153116 92 355 5.0 12.0 0.00 0.00 0.00 53 1013.7
20260905152553 92 327 4.0 12.0 0.00 0.00 0.00 53 1013.7
20260905152052 91 312 4.0 9.0 0.00 0.00 0.00 55 1013.8
20260905151608 91 313 4.0 12.0 0.00 0.00 0.00 55 1013.7
20260905151053 90 302 4.0 12.0 0.00 0.00 0.00 56 1013.8
20260905150557 90 323 7.0 12.0 0.00 0.00 0.00 57 1013.8
20260905150103 90 295 6.0 12.0 0.00 0.00 0.00 57 1013.7
20260905145555 89 290 5.0 11.0 0.00 0.00 0.00 59 1013.7
20260905145055 89 311 8.0 12.0 0.00 0.00 0.00 59 1013.7
20260905144558 89 276 8.0 13.0 0.00 0.00 0.00 59 1013.7
20260905144058 88 269 8.0 15.0 0.00 0.00 0.00 59 1013.9
20260905143553 88 302 9.0 15.0 0.00 0.00 0.00 58 1013.7
20260905143105 88 286 9.0 14.0 0.00 0.00 0.00 59 1013.7
20260905142552 88 309 9.0 14.0 0.00 0.00 0.00 60 1013.8
20260905142055 87 317 9.0 14.0 0.00 0.00 0.00 60 1013.7
20260905141607 87 297 8.0 12.0 0.00 0.00 0.00 63 1013.8
20260905141133 86 333 6.0 12.0 0.00 0.00 0.00 63 1013.6
20260905140557 86 317 6.0 9.0 0.00 0.00 0.00 66 1013.8
20260905140109 86 320 7.0 9.0 0.00 0.00 0.00 66 1013.7
20260905135556 85 274 6.0 9.0 0.00 0.00 0.00 67 1013.8
20260905135053 85 338 5.0 11.0 0.00 0.00 0.00 68 1013.8
20260905134602 84 301 7.0 11.0 0.00 0.00 0.00 68 1013.8
20260905134055 84 323 7.0 11.0 0.00 0.00 0.00 68 1013.8
20260905133553 84 285 5.0 8.0 0.00 0.00 0.00 70 1013.7
20260905133100 83 294 5.0 7.0 0.00 0.00 0.00 73 1013.8
20260905132555 82 321 3.0 5.0 0.00 0.00 0.00 74 1013.8
20260905132057 82 307 2.0 5.0 0.00 0.00 0.00 76 1013.8
20260905131614 81 295 2.0 4.0 0.00 0.00 0.00 79 1013.7
20260905131054 81 333 2.0 4.0 0.00 0.00 0.00 80 1013.6
20260905130559 80 321 2.0 4.0 0.00 0.00 0.00 82 1013.7
20260905130105 80 318 1.0 4.0 0.00 0.00 0.00 82 1013.6
20260905125555 79 330 2.0 4.0 0.00 0.00 0.00 82 1013.6
20260905125055 79 316 1.0 2.0 0.00 0.00 0.00 84 1013.6
20260905124600 79 0 0.0 1.0 0.00 0.00 0.00 84 1013.7
20260905124055 79 0 0.0 0.0 0.00 0.00 0.00 84 1013.6
20260905123555 78 0 0.0 0.0 0.00 0.00 0.00 86 1013.9
20260905123101 77 0 0.0 1.0 0.00 0.00 0.00 87 1013.8
20260905122555 76 0 0.0 1.0 0.00 0.00 0.00 88 1013.8
20260905122055 76 0 0.0 1.0 0.00 0.00 0.00 89 1013.8
20260905121848 76 0 0.0 2.0 0.00 0.00 0.00 89 1013.8
20260905121339 75 0 1.0 3.0 0.00 0.00 0.00 90 1013.7
20260905120559 75 217 2.0 3.0 0.00 0.00 0.00 89 1013.7
20260905120105 76 235 3.0 3.0 0.00 0.00 0.00 89 1013.8
20260905115601 76 239 3.0 3.0 0.00 0.00 0.00 89 1013.6
20260905115059 76 255 1.0 2.0 0.00 0.00 0.00 89 1013.5
20260905114602 75 283 1.0 2.0 0.00 0.00 0.00 90 1013.4
20260905114058 75 285 0.0 2.0 0.00 0.00 0.00 91 1013.4
20260905113601 74 223 0.0 2.0 0.00 0.00 0.00 92 1013.4
20260905113101 74 215 1.0 2.0 0.00 0.00 0.00 91 1013.4
20260905112558 75 202 2.0 2.0 0.00 0.00 0.00 91 1013.2
20260905112101 74 191 2.0 2.0 0.00 0.00 0.00 92 1013.1
20260905112043 74 176 2.0 2.0 0.00 0.00 0.00 91 1013.2
20260905111058 74 169 1.0 2.0 0.00 0.00 0.00 90 1013.3
20260905110558 75 180 1.0 1.0 0.00 0.00 0.00 91 1013.3
20260905103916 75 233 1.0 2.0 0.00 0.00 0.00 90 1013.0
20260905102554 75 230 1.0 1.0 0.00 0.00 0.00 90 1013.1
20260905102054 75 236 1.0 3.0 0.00 0.00 0.00 90 1013.1
20260905101601 75 216 1.0 3.0 0.00 0.00 0.00 90 1013.1
20260905101053 75 210 3.0 3.0 0.00 0.00 0.00 89 1013.1
20260905100553 76 223 2.0 3.0 0.00 0.00 0.00 89 1013.3
20260905100121 76 0 0.0 0.0 0.00 0.00 0.00 89 1013.2
20260905095555 76 0 0.0 0.0 0.00 0.00 0.00 89 1013.2
20260905095052 75 0 0.0 0.0 0.00 0.00 0.00 89 1013.1
20260905094600 75 0 0.0 0.0 0.00 0.00 0.00 89 1013.3
20260905094057 75 0 0.0 0.0 0.00 0.00 0.00 89 1013.3
20260905093558 76 0 0.0 0.0 0.00 0.00 0.00 89 1013.2
20260905093100 76 0 0.0 0.0 0.00 0.00 0.00 89 1013.2
20260905092559 76 0 0.0 0.0 0.00 0.00 0.00 89 1013.2
20260905092058 76 0 0.0 0.0 0.00 0.00 0.00 89 1013.1
20260905091601 76 0 0.0 0.0 0.00 0.00 0.00 88 1013.1
20260905091058 76 0 0.0 1.0 0.00 0.00 0.00 88 1013.0
20260905090559 75 0 0.0 2.0 0.00 0.00 0.00 88 1013.0
20260905090136 76 238 1.0 2.0 0.00 0.00 0.00 88 1013.1
20260905085558 76 238 1.0 2.0 0.00 0.00 0.00 88 1013.2
20260905085100 76 255 0.0 2.0 0.00 0.00 0.00 88 1013.1
20260905084559 76 221 2.0 2.0 0.00 0.00 0.00 89 1013.2
20260905084057 76 221 1.0 2.0 0.00 0.00 0.00 88 1013.1
20260905083557 76 215 2.0 3.0 0.00 0.00 0.00 88 1013.1
20260905083058 76 212 1.0 3.0 0.00 0.00 0.00 88 1013.1
20260905082558 76 179 3.0 3.0 0.00 0.00 0.00 88 1013.0
20260905082058 76 169 0.0 2.0 0.00 0.00 0.00 88 1012.9
20260905081604 76 221 1.0 2.0 0.00 0.00 0.00 88 1012.9
20260905081058 76 227 2.0 4.0 0.00 0.00 0.00 88 1012.9
20260905080558 76 237 2.0 4.0 0.00 0.00 0.00 87 1012.9
20260905080106 77 215 3.0 4.0 0.00 0.00 0.00 87 1012.9
20260905075558 77 251 1.0 2.0 0.00 0.00 0.00 87 1012.9
20260905075058 77 239 2.0 2.0 0.00 0.00 0.00 87 1012.9
20260905074608 77 231 2.0 2.0 0.00 0.00 0.00 87 1012.9
20260905074059 77 227 1.0 2.0 0.00 0.00 0.00 87 1012.8
20260905073559 77 0 0.0 1.0 0.00 0.00 0.00 86 1012.9
20260905073107 77 0 0.0 1.0 0.00 0.00 0.00 86 1012.9
20260905072559 77 0 0.0 1.0 0.00 0.00 0.00 86 1013.0
20260905072057 77 0 0.0 1.0 0.00 0.00 0.00 86 1013.0
20260905071602 77 0 0.0 2.0 0.00 0.00 0.00 86 1012.9
20260905071057 77 150 1.0 2.0 0.00 0.00 0.00 86 1012.8
20260905070557 77 165 1.0 3.0 0.00 0.00 0.00 85 1013.1
20260905065558 77 162 3.0 4.0 0.00 0.00 0.00 86 1012.9
20260905065057 77 165 4.0 4.0 0.00 0.00 0.00 85 1013.0
20260905064603 77 159 2.0 4.0 0.00 0.00 0.00 85 1013.0
20260905064058 77 150 3.0 4.0 0.00 0.00 0.00 85 1012.9
20260905063557 77 138 2.0 3.0 0.00 0.00 0.00 85 1013.0
20260905063226 77 151 2.0 3.0 0.00 0.00 0.00 85 1012.8
20260905063054 78 136 3.0 3.0 0.00 0.00 0.00 85 1012.9
20260905062051 78 150 2.0 4.0 0.00 0.00 0.00 84 1012.8
20260905061559 77 156 3.0 5.0 0.00 0.00 0.00 85 1012.7
20260905061053 77 153 3.0 5.0 0.00 0.00 0.00 84 1012.8
20260905060554 77 148 4.0 5.0 0.00 0.00 0.00 83 1012.9
20260905060106 78 149 4.0 4.0 0.00 0.00 0.00 82 1012.7
20260905055554 79 146 2.0 3.0 0.00 0.00 0.00 81 1012.8
20260905055055 79 146 0.0 2.0 0.00 0.00 0.00 80 1012.6
20260905054557 79 0 0.0 0.0 0.00 0.00 0.00 80 1012.7
20260905054051 79 0 0.0 0.0 0.00 0.00 0.00 80 1012.5
20260905053552 79 0 0.0 0.0 0.00 0.00 0.00 80 1012.7
20260905053102 79 0 0.0 0.0 0.00 0.00 0.00 80 1012.6
20260905052551 79 0 0.0 0.0 0.00 0.00 0.00 80 1012.5
20260905052055 79 0 0.0 0.0 0.00 0.00 0.00 80 1012.4
20260905051746 79 0 0.0 0.0 0.00 0.00 0.00 80 1012.4
20260905051600 79 0 0.0 0.0 0.00 0.00 0.00 80 1012.4
20260905051152 79 0 0.0 0.0 0.00 0.00 0.00 80 1012.5
20260905050552 79 0 0.0 0.0 0.00 0.00 0.00 80 1012.6
20260905050109 80 0 0.0 0.0 0.00 0.00 0.00 79 1012.7
20260905045552 80 0 0.0 0.0 0.00 0.00 0.00 79 1012.7
20260905045052 80 0 0.0 0.0 0.00 0.00 0.00 79 1012.6
20260905044559 80 0 0.0 0.0 0.00 0.00 0.00 78 1012.7
20260905044054 80 0 0.0 0.0 0.00 0.00 0.00 79 1012.7
20260905043555 80 0 0.0 0.0 0.00 0.00 0.00 80 1012.6
20260905043103 80 0 0.0 0.0 0.00 0.00 0.00 80 1012.6
20260905042551 80 0 0.0 0.0 0.00 0.00 0.00 79 1012.7
20260905042051 80 0 0.0 0.0 0.00 0.00 0.00 79 1012.7
20260905041602 80 0 0.0 1.0 0.00 0.00 0.00 79 1012.6
20260905041054 80 0 0.0 1.0 0.00 0.00 0.00 79 1012.6
20260905040554 80 0 0.0 1.0 0.00 0.00 0.00 78 1012.5
20260905035555 81 0 0.0 0.0 0.00 0.00 0.00 76 1012.7
20260905035054 81 0 0.0 0.0 0.00 0.00 0.00 76 1012.8
20260905034601 81 0 0.0 0.0 0.00 0.00 0.00 75 1012.8
20260905034055 81 0 0.0 0.0 0.00 0.00 0.00 75 1012.7
20260905033554 82 0 0.0 0.0 0.00 0.00 0.00 74 1012.7
20260905033105 81 0 0.0 0.0 0.00 0.00 0.00 74 1012.6
20260905032554 81 0 0.0 0.0 0.00 0.00 0.00 75 1012.8
20260905032054 81 0 0.0 0.0 0.00 0.00 0.00 75 1012.8